Location: Pl�tzky
(52.0521°N, 11.8020°E)
Time: 01:11:42
(UTC+00:00)

Cosmos 2263 Rocket - Pass Details

Date: 22 November 2019
Orbit: 825 x 847 km, 71.0° (Epoch: 06 December)

Event Time Altitude Azimuth Distance (km) Brightness Sun altitude
Rises 17:03:05 0° 329° (NNW) 3,376 5.6 -16.4°
Reaches altitude 10° 17:05:31 10° 329° (NNW) 2,439 4.8 -16.8°
Maximum altitude 17:11:07 90° 293° (WNW) 833 2.1 -17.6°
Drops below altitude 10° 17:16:42 10° 151° (SSE) 2,426 4.4 -18.5°
Sets 17:19:07 0° 152° (SSE) 3,357 5.1 -18.8°
